WXM80 ListenWXM80 Stop

You find our weather info also at:

UK Metoffice

WeatherCloud

Weather Underground

Northeastern Weather Network

AWEKAS

Citizen Weather Observer Program (CWOP)

HAMweather, WeatherForYou, PWS Weather


Weather Underground History page Text

Daily Summary for February 3, 2017 Units:  English    Metric   Both
« Previous Day
Next Day »
Daily Weekly Monthly Yearly Custom
  High: Low: Average:
Temperature: 33.1 °F 26.4 °F 30.4 °F
Dew Point: 19.7 °F 12.5 °F 15.9 °F
Humidity: 61 % 48 % 55 %
Wind Speed: 12.6 mph 0.4 mph 4.7 mph
Wind Gust: 25.3 mph - -
Wind:- - WNW
Pressure: 30.22 in 30.06 in -
Precipitation: 0.00 in    
Historical Graphs
 
 
Tabular Data for February 3, 2017
Time Temperature Dew Point Pressure Wind Wind Speed Wind Gust Humidity Rainfall Rate (Hourly)
00:01 32.1 °F 19.0 °F 30.16 in WNW 6.1 mph 11.0 mph 58 % 0.00 in
00:06 32.0 °F 19.3 °F 30.15 in West 4.2 mph 6.9 mph 59 % 0.00 in
00:11 32.0 °F 19.7 °F 30.16 in WNW 4.4 mph 9.2 mph 60 % 0.00 in
00:16 31.9 °F 19.2 °F 30.16 in WNW 4.8 mph 9.2 mph 59 % 0.00 in
00:21 31.9 °F 19.2 °F 30.16 in WNW 3.2 mph 10.4 mph 59 % 0.00 in
00:26 31.8 °F 18.7 °F 30.16 in West 5.6 mph 9.2 mph 58 % 0.00 in
00:31 31.8 °F 18.7 °F 30.16 in WNW 5.3 mph 10.4 mph 58 % 0.00 in
00:36 31.7 °F 18.6 °F 30.16 in WNW 5.9 mph 11.5 mph 58 % 0.00 in
00:41 31.7 °F 18.2 °F 30.16 in NW 5.6 mph 9.2 mph 57 % 0.00 in
00:42 31.7 °F 18.2 °F 30.16 in North 5.7 mph 9.2 mph 57 % 0.00 in
00:47 31.6 °F 17.7 °F 30.17 in WNW 4.4 mph 5.8 mph 56 % 0.00 in
00:52 31.5 °F 17.6 °F 30.17 in NNW 3.3 mph 10.4 mph 56 % 0.00 in
00:57 31.5 °F 17.6 °F 30.17 in WNW 4.6 mph 9.2 mph 56 % 0.00 in
01:02 31.5 °F 18.0 °F 30.16 in WNW 3.4 mph 6.9 mph 57 % 0.00 in
01:07 31.4 °F 18.3 °F 30.16 in NNW 7.0 mph 7.0 mph 58 % 0.00 in
01:12 31.4 °F 17.9 °F 30.17 in WSW 5.9 mph 10.4 mph 57 % 0.00 in
01:17 31.3 °F 17.8 °F 30.17 in WNW 3.0 mph 6.0 mph 57 % 0.00 in
01:22 31.2 °F 17.3 °F 30.17 in WNW 4.8 mph 17.3 mph 56 % 0.00 in
01:27 31.2 °F 17.7 °F 30.17 in NW 8.5 mph 13.8 mph 57 % 0.00 in
01:32 31.2 °F 17.3 °F 30.17 in West 3.7 mph 10.4 mph 56 % 0.00 in
01:37 31.1 °F 17.2 °F 30.17 in NW 4.8 mph 13.8 mph 56 % 0.00 in
01:42 31.1 °F 16.8 °F 30.17 in WNW 6.9 mph 12.7 mph 55 % 0.00 in
01:47 31.0 °F 16.3 °F 30.17 in West 8.3 mph 11.5 mph 54 % 0.00 in
01:52 30.9 °F 16.6 °F 30.17 in NW 2.7 mph 9.2 mph 55 % 0.00 in
01:57 30.8 °F 16.5 °F 30.18 in WNW 5.3 mph 11.5 mph 55 % 0.00 in
02:03 30.7 °F 16.8 °F 30.18 in NW 6.3 mph 11.5 mph 56 % 0.00 in
02:08 30.6 °F 16.7 °F 30.18 in WNW 5.3 mph 9.2 mph 56 % 0.00 in
02:13 30.5 °F 16.7 °F 30.18 in WNW 5.5 mph 8.1 mph 56 % 0.00 in
02:18 30.4 °F 16.6 °F 30.18 in NW 5.0 mph 11.5 mph 56 % 0.00 in
02:23 30.4 °F 17.0 °F 30.18 in NW 5.9 mph 12.7 mph 57 % 0.00 in
02:28 30.3 °F 16.5 °F 30.17 in NNW 3.9 mph 10.4 mph 56 % 0.00 in
02:33 30.2 °F 16.4 °F 30.18 in WNW 3.3 mph 10.4 mph 56 % 0.00 in
02:38 30.2 °F 17.2 °F 30.18 in WNW 4.5 mph 6.9 mph 58 % 0.00 in
02:43 30.1 °F 18.3 °F 30.18 in NW 3.3 mph 6.9 mph 61 % 0.00 in
02:48 30.0 °F 17.8 °F 30.18 in NNW 3.1 mph 4.6 mph 60 % 0.00 in
02:53 29.8 °F 18.0 °F 30.17 in North 5.5 mph 13.8 mph 61 % 0.00 in
02:58 29.8 °F 17.6 °F 30.18 in NW 4.0 mph 8.0 mph 60 % 0.00 in
03:03 29.7 °F 17.5 °F 30.18 in NNW 3.8 mph 4.6 mph 60 % 0.00 in
03:08 29.6 °F 17.4 °F 30.18 in NW 5.2 mph 11.5 mph 60 % 0.00 in
03:13 29.4 °F 17.2 °F 30.18 in NNW 5.6 mph 9.2 mph 60 % 0.00 in
03:18 29.4 °F 17.2 °F 30.18 in WNW 6.1 mph 11.0 mph 60 % 0.00 in
03:23 29.3 °F 17.1 °F 30.18 in NNW 4.7 mph 12.7 mph 60 % 0.00 in
03:28 29.2 °F 17.0 °F 30.18 in NW 6.5 mph 11.5 mph 60 % 0.00 in
03:33 29.1 °F 16.9 °F 30.17 in WNW 5.4 mph 12.0 mph 60 % 0.00 in
03:38 29.0 °F 16.8 °F 30.17 in North 8.9 mph 15.0 mph 60 % 0.00 in
03:43 28.9 °F 16.7 °F 30.17 in NW 6.4 mph 9.2 mph 60 % 0.00 in
03:48 28.8 °F 16.3 °F 30.17 in NNW 6.3 mph 11.5 mph 59 % 0.00 in
03:53 28.7 °F 15.8 °F 30.17 in West 7.9 mph 18.4 mph 58 % 0.00 in
03:58 28.6 °F 16.1 °F 30.17 in WNW 7.9 mph 17.3 mph 59 % 0.00 in
04:03 28.5 °F 15.6 °F 30.17 in NW 6.0 mph 17.0 mph 58 % 0.00 in
04:08 28.4 °F 15.5 °F 30.18 in NW 6.0 mph 12.0 mph 58 % 0.00 in
04:13 28.3 °F 15.4 °F 30.18 in WNW 7.0 mph 14.0 mph 58 % 0.00 in
04:18 28.2 °F 14.9 °F 30.18 in WNW 6.4 mph 11.5 mph 57 % 0.00 in
04:23 28.1 °F 14.8 °F 30.18 in WNW 3.0 mph 12.0 mph 57 % 0.00 in
04:28 28.0 °F 15.1 °F 30.18 in NW 6.0 mph 13.0 mph 58 % 0.00 in
04:33 28.0 °F 15.5 °F 30.18 in NW 6.0 mph 15.0 mph 59 % 0.00 in
04:38 27.9 °F 15.0 °F 30.18 in NW 5.0 mph 12.0 mph 58 % 0.00 in
04:43 27.9 °F 15.4 °F 30.18 in NW 6.0 mph 9.0 mph 59 % 0.00 in
04:48 27.8 °F 14.9 °F 30.18 in NW 3.0 mph 12.0 mph 58 % 0.00 in
04:53 27.7 °F 14.9 °F 30.18 in NW 6.0 mph 12.0 mph 58 % 0.00 in
04:58 27.6 °F 15.1 °F 30.18 in NW 7.3 mph 10.4 mph 59 % 0.00 in
05:03 27.6 °F 14.7 °F 30.18 in NW 7.0 mph 13.0 mph 58 % 0.00 in
05:08 27.5 °F 14.6 °F 30.18 in WNW 6.0 mph 10.0 mph 58 % 0.00 in
05:13 27.4 °F 14.5 °F 30.18 in NW 5.0 mph 14.0 mph 58 % 0.00 in
05:18 27.3 °F 14.5 °F 30.18 in NW 5.0 mph 10.0 mph 58 % 0.00 in
05:23 27.3 °F 14.4 °F 30.19 in NW 5.0 mph 10.0 mph 58 % 0.00 in
05:28 27.2 °F 14.4 °F 30.19 in NW 3.0 mph 9.0 mph 58 % 0.00 in
05:33 27.1 °F 14.3 °F 30.19 in WNW 4.2 mph 10.4 mph 58 % 0.00 in
05:38 27.1 °F 14.3 °F 30.19 in WNW 6.0 mph 9.0 mph 58 % 0.00 in
05:43 27.0 °F 14.2 °F 30.19 in WNW 6.0 mph 12.0 mph 58 % 0.00 in
05:48 27.0 °F 14.2 °F 30.19 in WNW 7.0 mph 12.0 mph 58 % 0.00 in
05:53 27.0 °F 14.2 °F 30.19 in WNW 4.0 mph 6.9 mph 58 % 0.00 in
05:58 26.9 °F 14.1 °F 30.19 in NW 6.5 mph 9.2 mph 58 % 0.00 in
06:03 26.9 °F 14.1 °F 30.18 in WNW 5.0 mph 12.0 mph 58 % 0.00 in
06:08 26.8 °F 14.4 °F 30.18 in WNW 7.0 mph 12.0 mph 59 % 0.00 in
06:13 26.8 °F 14.0 °F 30.19 in WNW 5.0 mph 13.0 mph 58 % 0.00 in
06:18 26.8 °F 14.0 °F 30.19 in WNW 3.0 mph 7.0 mph 58 % 0.00 in
06:23 26.7 °F 14.3 °F 30.19 in WNW 6.0 mph 14.0 mph 59 % 0.00 in
06:28 26.7 °F 14.3 °F 30.20 in WNW 3.0 mph 12.0 mph 59 % 0.00 in
06:33 26.6 °F 14.2 °F 30.20 in WNW 2.5 mph 7.0 mph 59 % 0.00 in
06:38 26.6 °F 14.6 °F 30.20 in NW 2.0 mph 9.0 mph 60 % 0.00 in
06:43 26.5 °F 14.5 °F 30.20 in NW 5.0 mph 13.0 mph 60 % 0.00 in
06:48 26.5 °F 14.1 °F 30.20 in NW 3.0 mph 9.0 mph 59 % 0.00 in
06:53 26.5 °F 14.5 °F 30.20 in NW 3.7 mph 6.9 mph 60 % 0.00 in
06:58 26.4 °F 14.0 °F 30.20 in NNW 3.2 mph 11.5 mph 59 % 0.00 in
07:03 26.4 °F 14.4 °F 30.19 in NW 2.0 mph 12.0 mph 60 % 0.00 in
07:08 26.4 °F 14.4 °F 30.19 in NW 3.0 mph 10.0 mph 60 % 0.00 in
07:13 26.4 °F 14.0 °F 30.20 in NNW 3.3 mph 6.9 mph 59 % 0.00 in
07:18 26.4 °F 14.4 °F 30.20 in NW 2.0 mph 6.0 mph 60 % 0.00 in
07:23 26.5 °F 14.5 °F 30.20 in NW 2.0 mph 6.0 mph 60 % 0.00 in
07:28 26.5 °F 14.1 °F 30.20 in NW 5.0 mph 12.0 mph 59 % 0.00 in
07:33 26.6 °F 14.2 °F 30.21 in WNW 3.4 mph 8.1 mph 59 % 0.00 in
07:38 26.6 °F 14.2 °F 30.20 in NW 3.0 mph 5.0 mph 59 % 0.00 in
07:43 26.7 °F 14.3 °F 30.20 in WNW 3.0 mph 10.0 mph 59 % 0.00 in
07:48 26.7 °F 14.3 °F 30.20 in NW 2.0 mph 8.0 mph 59 % 0.00 in
07:53 26.8 °F 14.4 °F 30.20 in WNW 3.0 mph 5.0 mph 59 % 0.00 in
07:58 26.9 °F 14.9 °F 30.21 in WNW 2.8 mph 5.8 mph 60 % 0.00 in
08:03 27.0 °F 15.3 °F 30.20 in NW 3.0 mph 9.0 mph 61 % 0.00 in
08:08 27.1 °F 14.7 °F 30.20 in NW 2.0 mph 7.0 mph 59 % 0.00 in
08:13 27.2 °F 14.4 °F 30.20 in WNW 3.2 mph 6.9 mph 58 % 0.00 in
08:18 27.3 °F 14.9 °F 30.21 in NW 2.0 mph 8.0 mph 59 % 0.00 in
08:23 27.5 °F 15.0 °F 30.21 in WNW 5.8 mph 6.9 mph 59 % 0.00 in
08:28 27.6 °F 15.1 °F 30.21 in NW 1.0 mph 6.0 mph 59 % 0.00 in
08:33 27.8 °F 15.3 °F 30.21 in NW 2.9 mph 6.9 mph 59 % 0.00 in
08:38 27.9 °F 15.0 °F 30.21 in WNW 5.0 mph 8.0 mph 58 % 0.00 in
08:43 28.0 °F 15.1 °F 30.21 in WNW 2.0 mph 7.0 mph 58 % 0.00 in
08:48 28.2 °F 15.3 °F 30.22 in NW 2.0 mph 8.0 mph 58 % 0.00 in
08:53 28.4 °F 15.1 °F 30.22 in West 4.9 mph 5.8 mph 57 % 0.00 in
08:58 28.5 °F 15.2 °F 30.22 in WNW 4.5 mph 4.5 mph 57 % 0.00 in
09:04 28.7 °F 15.0 °F 30.22 in SW 4.2 mph 9.2 mph 56 % 0.00 in
09:09 28.8 °F 15.5 °F 30.22 in WNW 5.1 mph 8.1 mph 57 % 0.00 in
09:14 29.0 °F 15.2 °F 30.22 in WNW 1.8 mph 5.8 mph 56 % 0.00 in
09:19 29.2 °F 15.0 °F 30.22 in WNW 6.7 mph 11.0 mph 55 % 0.00 in
09:24 29.3 °F 14.7 °F 30.22 in WNW 3.5 mph 4.6 mph 54 % 0.00 in
09:29 29.4 °F 15.2 °F 30.22 in WNW 2.3 mph 4.6 mph 55 % 0.00 in
09:34 29.5 °F 15.3 °F 30.22 in WNW 3.4 mph 5.0 mph 55 % 0.00 in
09:39 29.6 °F 15.0 °F 30.22 in West 6.6 mph 9.2 mph 54 % 0.00 in
09:44 29.8 °F 15.2 °F 30.22 in WSW 4.9 mph 8.1 mph 54 % 0.00 in
09:49 30.0 °F 15.3 °F 30.22 in WNW 4.6 mph 9.2 mph 54 % 0.00 in
09:54 30.1 °F 15.4 °F 30.22 in WNW 3.7 mph 5.8 mph 54 % 0.00 in
09:59 30.2 °F 15.1 °F 30.21 in NW 2.5 mph 8.1 mph 53 % 0.00 in
10:04 30.4 °F 15.3 °F 30.20 in NW 3.0 mph 5.8 mph 53 % 0.00 in
10:09 30.4 °F 15.3 °F 30.20 in WNW 2.2 mph 6.9 mph 53 % 0.00 in
10:14 30.5 °F 15.4 °F 30.20 in West 3.8 mph 8.1 mph 53 % 0.00 in
10:19 30.6 °F 15.5 °F 30.21 in WSW 1.3 mph 3.5 mph 53 % 0.00 in
10:24 30.7 °F 16.0 °F 30.20 in WNW 1.7 mph 5.8 mph 54 % 0.00 in
10:29 30.7 °F 15.6 °F 30.20 in West 4.5 mph 5.8 mph 53 % 0.00 in
10:34 30.8 °F 15.7 °F 30.20 in West 5.0 mph 10.4 mph 53 % 0.00 in
10:39 30.9 °F 15.3 °F 30.19 in WNW 2.6 mph 5.8 mph 52 % 0.00 in
10:44 31.3 °F 16.6 °F 30.19 in WNW 2.1 mph 5.8 mph 54 % 0.00 in
10:50 31.7 °F 16.1 °F 30.19 in WSW 5.4 mph 6.0 mph 52 % 0.00 in
10:55 31.7 °F 16.1 °F 30.19 in WSW 4.2 mph 8.1 mph 52 % 0.00 in
11:00 31.7 °F 15.6 °F 30.18 in NW 3.8 mph 6.9 mph 51 % 0.00 in
11:05 31.5 °F 15.4 °F 30.18 in WNW 6.9 mph 9.2 mph 51 % 0.00 in
11:10 31.3 °F 15.7 °F 30.18 in WSW 4.2 mph 5.8 mph 52 % 0.00 in
11:15 31.3 °F 16.1 °F 30.18 in WNW 2.4 mph 7.0 mph 53 % 0.00 in
11:20 31.2 °F 16.0 °F 30.17 in WSW 4.1 mph 5.8 mph 53 % 0.00 in
11:25 31.2 °F 15.6 °F 30.17 in WNW 3.6 mph 5.8 mph 52 % 0.00 in
11:30 31.1 °F 15.5 °F 30.17 in SW 4.9 mph 11.5 mph 52 % 0.00 in
11:35 31.1 °F 15.5 °F 30.17 in West 3.8 mph 5.8 mph 52 % 0.00 in
11:40 31.0 °F 15.4 °F 30.17 in SW 5.1 mph 9.2 mph 52 % 0.00 in
11:45 31.0 °F 15.8 °F 30.16 in West 0.8 mph 6.0 mph 53 % 0.00 in
11:50 31.2 °F 16.0 °F 30.16 in WNW 3.9 mph 8.1 mph 53 % 0.00 in
11:55 31.4 °F 16.2 °F 30.15 in WSW 5.2 mph 12.0 mph 53 % 0.00 in
12:00 31.4 °F 16.2 °F 30.15 in West 3.9 mph 8.1 mph 53 % 0.00 in
12:05 31.5 °F 16.3 °F 30.15 in SW 5.5 mph 9.2 mph 53 % 0.00 in
12:10 31.6 °F 16.0 °F 30.14 in SW 4.3 mph 5.8 mph 52 % 0.00 in
12:15 31.7 °F 16.1 °F 30.14 in West 6.5 mph 10.4 mph 52 % 0.00 in
12:20 31.7 °F 16.5 °F 30.14 in WSW 3.8 mph 10.0 mph 53 % 0.00 in
12:25 31.8 °F 16.2 °F 30.14 in SW 3.3 mph 9.2 mph 52 % 0.00 in
12:31 31.9 °F 16.7 °F 30.13 in NW 5.9 mph 9.2 mph 53 % 0.00 in
12:36 32.3 °F 16.6 °F 30.13 in SW 5.3 mph 8.1 mph 52 % 0.00 in
12:41 32.4 °F 15.8 °F 30.12 in WNW 4.8 mph 8.1 mph 50 % 0.00 in
12:46 32.4 °F 16.3 °F 30.12 in WNW 5.4 mph 8.1 mph 51 % 0.00 in
12:51 32.4 °F 15.8 °F 30.12 in WNW 6.1 mph 9.2 mph 50 % 0.00 in
12:56 32.3 °F 15.7 °F 30.11 in NW 3.5 mph 6.9 mph 50 % 0.00 in
13:01 32.3 °F 15.7 °F 30.11 in West 4.1 mph 5.0 mph 50 % 0.00 in
13:06 32.3 °F 16.2 °F 30.11 in WNW 5.0 mph 9.2 mph 51 % 0.00 in
13:11 32.2 °F 15.6 °F 30.11 in WNW 6.1 mph 10.4 mph 50 % 0.00 in
13:16 32.1 °F 15.5 °F 30.10 in WNW 4.4 mph 5.8 mph 50 % 0.00 in
13:21 32.1 °F 15.5 °F 30.10 in West 5.5 mph 9.2 mph 50 % 0.00 in
13:26 32.3 °F 16.2 °F 30.09 in SW 4.7 mph 7.0 mph 51 % 0.00 in
13:31 32.4 °F 15.8 °F 30.09 in WSW 7.1 mph 8.1 mph 50 % 0.00 in
13:36 32.4 °F 16.3 °F 30.09 in WNW 2.8 mph 7.0 mph 51 % 0.00 in
13:41 32.5 °F 16.4 °F 30.09 in West 5.4 mph 9.2 mph 51 % 0.00 in
13:46 32.6 °F 16.4 °F 30.09 in WSW 5.8 mph 8.0 mph 51 % 0.00 in
13:51 32.6 °F 16.4 °F 30.09 in WSW 4.7 mph 7.0 mph 51 % 0.00 in
13:56 32.9 °F 16.3 °F 30.08 in SW 5.8 mph 8.1 mph 50 % 0.00 in
14:01 33.0 °F 16.4 °F 30.08 in WSW 5.0 mph 9.2 mph 50 % 0.00 in
14:06 32.9 °F 15.8 °F 30.08 in SW 7.2 mph 9.2 mph 49 % 0.00 in
14:11 32.6 °F 16.0 °F 30.08 in SSW 5.2 mph 11.5 mph 50 % 0.00 in
14:16 32.7 °F 16.5 °F 30.08 in SW 4.6 mph 8.1 mph 51 % 0.00 in
14:17 32.7 °F 16.5 °F 30.08 in South 4.5 mph 9.0 mph 51 % 0.00 in
14:22 32.7 °F 17.0 °F 30.08 in West 2.0 mph 6.9 mph 52 % 0.00 in
14:27 32.9 °F 16.7 °F 30.07 in West 5.9 mph 8.1 mph 51 % 0.00 in
14:32 33.0 °F 16.8 °F 30.07 in WSW 3.9 mph 5.8 mph 51 % 0.00 in
14:37 33.1 °F 16.5 °F 30.07 in West 3.4 mph 6.9 mph 50 % 0.00 in
14:42 33.0 °F 16.4 °F 30.07 in WSW 4.6 mph 8.1 mph 50 % 0.00 in
14:47 33.0 °F 16.4 °F 30.07 in SW 4.0 mph 8.1 mph 50 % 0.00 in
14:52 32.9 °F 16.3 °F 30.07 in WSW 2.5 mph 4.6 mph 50 % 0.00 in
14:57 32.8 °F 16.2 °F 30.07 in WSW 4.9 mph 6.9 mph 50 % 0.00 in
15:02 32.8 °F 16.2 °F 30.07 in WSW 3.3 mph 6.0 mph 50 % 0.00 in
15:07 32.7 °F 16.1 °F 30.07 in West 6.8 mph 8.1 mph 50 % 0.00 in
15:12 32.6 °F 16.4 °F 30.07 in WNW 3.5 mph 6.9 mph 51 % 0.00 in
15:17 32.6 °F 16.0 °F 30.07 in WSW 4.6 mph 9.2 mph 50 % 0.00 in
15:22 32.6 °F 16.9 °F 30.07 in WSW 0.9 mph 3.5 mph 52 % 0.00 in
15:27 32.6 °F 16.4 °F 30.07 in SW 2.8 mph 10.4 mph 51 % 0.00 in
15:32 32.6 °F 16.4 °F 30.07 in WSW 4.5 mph 8.1 mph 51 % 0.00 in
15:37 32.5 °F 16.4 °F 30.07 in WSW 4.1 mph 8.1 mph 51 % 0.00 in
15:42 32.5 °F 16.4 °F 30.06 in West 4.9 mph 8.1 mph 51 % 0.00 in
15:47 32.4 °F 16.3 °F 30.06 in WNW 2.7 mph 3.5 mph 51 % 0.00 in
15:52 32.5 °F 16.4 °F 30.06 in West 3.0 mph 6.9 mph 51 % 0.00 in
15:57 32.4 °F 16.3 °F 30.06 in West 1.5 mph 4.6 mph 51 % 0.00 in
16:03 32.4 °F 16.7 °F 30.06 in WSW 3.4 mph 6.0 mph 52 % 0.00 in
16:08 32.5 °F 16.4 °F 30.06 in West 2.1 mph 9.2 mph 51 % 0.00 in
16:13 32.5 °F 16.8 °F 30.06 in WNW 1.5 mph 4.6 mph 52 % 0.00 in
16:18 32.5 °F 16.8 °F 30.06 in West 2.1 mph 5.8 mph 52 % 0.00 in
16:23 32.5 °F 16.4 °F 30.06 in WSW 5.3 mph 9.2 mph 51 % 0.00 in
16:28 32.5 °F 15.9 °F 30.06 in WNW 4.1 mph 6.9 mph 50 % 0.00 in
16:33 32.4 °F 15.3 °F 30.06 in WNW 4.9 mph 9.2 mph 49 % 0.00 in
16:38 32.4 °F 15.3 °F 30.06 in WNW 4.3 mph 9.2 mph 49 % 0.00 in
16:43 32.4 °F 15.8 °F 30.07 in NNW 2.5 mph 8.1 mph 50 % 0.00 in
16:48 32.3 °F 15.3 °F 30.07 in West 2.4 mph 5.8 mph 49 % 0.00 in
16:53 32.2 °F 15.6 °F 30.06 in WNW 4.3 mph 7.0 mph 50 % 0.00 in
16:58 32.2 °F 15.6 °F 30.06 in NW 3.8 mph 8.1 mph 50 % 0.00 in
17:03 32.1 °F 16.0 °F 30.06 in WNW 0.9 mph 5.8 mph 51 % 0.00 in
17:08 32.1 °F 16.0 °F 30.06 in WNW 5.4 mph 8.1 mph 51 % 0.00 in
17:13 32.1 °F 16.4 °F 30.07 in WNW 3.8 mph 6.9 mph 52 % 0.00 in
17:18 32.0 °F 16.3 °F 30.07 in WNW 3.1 mph 10.0 mph 52 % 0.00 in
17:23 32.0 °F 15.9 °F 30.06 in WNW 0.6 mph 2.3 mph 51 % 0.00 in
17:28 32.0 °F 15.9 °F 30.06 in West 3.6 mph 6.0 mph 51 % 0.00 in
17:33 31.9 °F 16.2 °F 30.07 in WNW 0.5 mph 1.2 mph 52 % 0.00 in
17:38 31.9 °F 16.2 °F 30.06 in WNW 0.4 mph 3.5 mph 52 % 0.00 in
17:43 31.9 °F 16.7 °F 30.07 in WNW 1.9 mph 5.8 mph 53 % 0.00 in
17:48 31.9 °F 16.2 °F 30.07 in WNW 1.1 mph 6.9 mph 52 % 0.00 in
17:53 31.8 °F 16.6 °F 30.07 in WNW 2.2 mph 6.0 mph 53 % 0.00 in
17:58 31.8 °F 16.2 °F 30.07 in WNW 2.2 mph 8.1 mph 52 % 0.00 in
18:03 31.9 °F 16.2 °F 30.07 in WNW 3.0 mph 9.0 mph 52 % 0.00 in
18:08 31.9 °F 16.2 °F 30.07 in WNW 3.0 mph 12.0 mph 52 % 0.00 in
18:13 31.9 °F 16.3 °F 30.07 in WNW 2.0 mph 7.0 mph 52 % 0.00 in
18:18 32.0 °F 16.3 °F 30.07 in NW 6.1 mph 6.1 mph 52 % 0.00 in
18:23 32.0 °F 16.3 °F 30.07 in WNW 5.0 mph 9.0 mph 52 % 0.00 in
18:28 32.0 °F 16.3 °F 30.07 in WNW 3.0 mph 9.0 mph 52 % 0.00 in
18:33 32.0 °F 15.9 °F 30.07 in NW 4.8 mph 5.8 mph 51 % 0.00 in
18:38 32.0 °F 15.9 °F 30.07 in WNW 6.0 mph 13.0 mph 51 % 0.00 in
18:43 32.0 °F 16.3 °F 30.07 in NW 3.0 mph 12.0 mph 52 % 0.00 in
18:48 32.0 °F 16.3 °F 30.07 in NW 2.0 mph 12.0 mph 52 % 0.00 in
18:53 32.0 °F 16.8 °F 30.08 in WNW 3.0 mph 12.0 mph 53 % 0.00 in
18:58 32.0 °F 16.3 °F 30.08 in NW 4.5 mph 6.9 mph 52 % 0.00 in
19:03 32.0 °F 16.3 °F 30.08 in WNW 8.8 mph 13.0 mph 52 % 0.00 in
19:09 32.1 °F 16.9 °F 30.08 in WNW 4.7 mph 11.5 mph 53 % 0.00 in
19:14 32.0 °F 16.3 °F 30.08 in WSW 5.5 mph 11.5 mph 52 % 0.00 in
19:19 32.0 °F 16.3 °F 30.08 in WNW 2.1 mph 3.5 mph 52 % 0.00 in
19:24 31.9 °F 15.8 °F 30.08 in West 6.9 mph 13.8 mph 51 % 0.00 in
19:29 31.9 °F 15.8 °F 30.09 in West 4.1 mph 9.2 mph 51 % 0.00 in
19:30 31.9 °F 16.2 °F 30.09 in West 6.5 mph 9.0 mph 52 % 0.00 in
19:34 31.9 °F 16.2 °F 30.09 in NW 4.1 mph 11.5 mph 52 % 0.00 in
19:39 31.8 °F 16.6 °F 30.09 in WNW 4.5 mph 8.0 mph 53 % 0.00 in
19:44 31.8 °F 15.7 °F 30.09 in WSW 6.0 mph 9.2 mph 51 % 0.00 in
19:49 31.8 °F 16.2 °F 30.09 in West 6.5 mph 9.2 mph 52 % 0.00 in
19:54 31.7 °F 16.1 °F 30.09 in WNW 3.2 mph 10.4 mph 52 % 0.00 in
20:00 31.7 °F 16.1 °F 30.09 in WNW 2.8 mph 11.5 mph 52 % 0.00 in
20:05 31.6 °F 16.0 °F 30.09 in West 5.9 mph 9.2 mph 52 % 0.00 in
20:10 31.6 °F 16.0 °F 30.10 in West 4.3 mph 11.5 mph 52 % 0.00 in
20:15 31.6 °F 16.8 °F 30.10 in WNW 5.9 mph 11.5 mph 54 % 0.00 in
20:20 31.5 °F 15.9 °F 30.10 in NW 6.3 mph 13.8 mph 52 % 0.00 in
20:25 31.5 °F 16.3 °F 30.10 in WNW 5.6 mph 11.5 mph 53 % 0.00 in
20:30 31.5 °F 17.2 °F 30.10 in WNW 1.2 mph 3.5 mph 55 % 0.00 in
20:35 31.5 °F 17.2 °F 30.11 in NW 5.9 mph 10.4 mph 55 % 0.00 in
20:40 31.5 °F 16.3 °F 30.11 in WSW 4.5 mph 9.2 mph 53 % 0.00 in
20:45 31.4 °F 16.2 °F 30.11 in West 7.2 mph 11.5 mph 53 % 0.00 in
20:50 31.3 °F 16.1 °F 30.11 in NNW 6.4 mph 11.5 mph 53 % 0.00 in
20:55 31.3 °F 16.6 °F 30.12 in WNW 6.6 mph 13.8 mph 54 % 0.00 in
21:00 31.2 °F 16.5 °F 30.11 in NNW 8.0 mph 17.3 mph 54 % 0.00 in
21:05 31.2 °F 16.9 °F 30.11 in WSW 6.2 mph 15.0 mph 55 % 0.00 in
21:11 31.2 °F 16.0 °F 30.11 in West 5.5 mph 16.1 mph 53 % 0.00 in
21:16 31.1 °F 16.4 °F 30.11 in WNW 4.8 mph 6.9 mph 54 % 0.00 in
21:21 31.0 °F 16.3 °F 30.11 in NNW 6.8 mph 13.8 mph 54 % 0.00 in
21:26 31.0 °F 16.7 °F 30.11 in NW 6.0 mph 12.7 mph 55 % 0.00 in
21:31 30.9 °F 16.6 °F 30.12 in WNW 8.5 mph 15.0 mph 55 % 0.00 in
21:36 30.8 °F 16.5 °F 30.12 in WNW 8.0 mph 14.0 mph 55 % 0.00 in
21:41 30.8 °F 16.1 °F 30.12 in WNW 7.8 mph 16.1 mph 54 % 0.00 in
21:46 30.7 °F 16.0 °F 30.12 in West 4.8 mph 5.8 mph 54 % 0.00 in
21:51 30.7 °F 16.0 °F 30.12 in NW 8.4 mph 18.4 mph 54 % 0.00 in
21:56 30.6 °F 16.3 °F 30.13 in NW 9.6 mph 14.0 mph 55 % 0.00 in
22:01 30.6 °F 16.3 °F 30.13 in NNW 8.5 mph 13.8 mph 55 % 0.00 in
22:06 30.5 °F 17.1 °F 30.13 in NNW 4.6 mph 11.5 mph 57 % 0.00 in
22:11 30.4 °F 16.1 °F 30.13 in NW 9.8 mph 18.4 mph 55 % 0.00 in
22:16 30.3 °F 15.2 °F 30.14 in WNW 9.9 mph 18.4 mph 53 % 0.00 in
22:21 30.2 °F 14.7 °F 30.13 in NNW 5.8 mph 10.4 mph 52 % 0.00 in
22:26 30.1 °F 14.1 °F 30.14 in NNW 9.1 mph 14.0 mph 51 % 0.00 in
22:31 29.8 °F 12.5 °F 30.14 in NNW 3.9 mph 9.2 mph 48 % 0.00 in
22:32 29.8 °F 13.4 °F 30.14 in NNW 6.5 mph 6.9 mph 50 % 0.00 in
22:37 29.7 °F 13.8 °F 30.14 in NNW 7.1 mph 18.0 mph 51 % 0.00 in
22:43 29.6 °F 14.1 °F 30.14 in NW 7.6 mph 12.7 mph 52 % 0.00 in
22:48 29.5 °F 13.6 °F 30.15 in NNW 5.0 mph 10.4 mph 51 % 0.00 in
22:53 29.4 °F 13.5 °F 30.15 in North 8.4 mph 12.7 mph 51 % 0.00 in
22:58 29.3 °F 13.8 °F 30.15 in NW 6.3 mph 12.7 mph 52 % 0.00 in
23:03 29.2 °F 14.2 °F 30.15 in NW 6.1 mph 11.5 mph 53 % 0.00 in
23:08 29.1 °F 14.9 °F 30.15 in North 8.5 mph 19.6 mph 55 % 0.00 in
23:13 29.0 °F 14.8 °F 30.15 in NNW 7.9 mph 16.0 mph 55 % 0.00 in
23:18 28.9 °F 14.7 °F 30.16 in NW 7.2 mph 9.2 mph 55 % 0.00 in
23:23 28.7 °F 14.1 °F 30.16 in NNW 4.7 mph 9.2 mph 54 % 0.00 in
23:28 28.6 °F 14.9 °F 30.16 in North 6.5 mph 16.1 mph 56 % 0.00 in
23:33 28.5 °F 14.4 °F 30.16 in NNW 7.7 mph 11.0 mph 55 % 0.00 in
23:38 28.3 °F 14.6 °F 30.16 in WNW 6.4 mph 13.8 mph 56 % 0.00 in
23:41 28.3 °F 14.6 °F 30.16 in NW 8.4 mph 15.0 mph 56 % 0.00 in
23:46 28.2 °F 14.9 °F 30.17 in NW 10.6 mph 20.7 mph 57 % 0.00 in
23:51 28.0 °F 13.5 °F 30.17 in NNW 10.7 mph 19.6 mph 54 % 0.00 in
23:56 27.8 °F 12.9 °F 30.17 in NW 12.6 mph 25.3 mph 53 % 0.00 in
Crab Meadow Weather
Compliments of Weather Underground - 3 mb

Script developed by  Jim McMurry - jmcmurry@mwt.net Adapted for the template by  Wim van der Kuil - Leuven-Template.eu

Weather Terms: Blowing Snow Advisory - Widespread blowing snow with winds 25 to 35 mph, occasionally reducing visibility to 1/4 mile or less.